Location: ??????
(31.2056°N, 45.3906°E)
Time: 21:41:25
(UTC+00:00)

NOSS 3-4 (C) - Pass Details

Date: 09 April 2020
Orbit: 897 x 1316 km, 63.4° (Epoch: 30 May)

Event Time Altitude Azimuth Distance (km) Brightness Sun altitude
Rises 17:43:20 0° 325° (NW) 3,957 7.7 -28.9°
Reaches altitude 10° 17:45:58 10° 322° (NW) 3,053 6.9 -29.3°
Maximum altitude 17:53:12 60° 245° (WSW) 1,390 4.3 -30.6°
Enters shadow 17:55:10 47° 196° (SSW) 1,598 4.4 -31.0°
